WZZ1212 EPWA-LMML

Flight info

Callsign WZZ1212
Flight time 2h 47m
Altitude 38000
Route EVINA M66 BABKO DCT UPIVA DCT XOMBA DCT VEBAL DCT KATTI/N0446F390 DCT VEBOX DCT KUTID DCT LIBRO/N0347F190 N982 GZO
Aircraft A20N/M-SDE2E3FGHIRWXY/LB1

Departure

Time 2026-05-07 13:59
Airport Warsaw Chopin Airport (EPWA)

Arrival

Time 2026-05-07 16:46
Airport Malta International Airport (LMML)
Time Latitude Longitude Altitude Speed Heading
2026-05-07 13:30 52.17377 20.97048 335 ft 0 kts 242°
2026-05-07 13:48 52.17380 20.97057 338 ft 2 kts 239°
2026-05-07 13:48 52.17388 20.97080 333 ft 2 kts 240°
2026-05-07 13:49 52.17396 20.97104 335 ft 2 kts 255°
2026-05-07 13:49 52.17396 20.97131 334 ft 2 kts 295°
2026-05-07 13:49 52.17387 20.97152 334 ft 2 kts 323°
2026-05-07 13:49 52.17383 20.97156 334 ft 0 kts 329°
2026-05-07 13:52 52.17385 20.97154 334 ft 2 kts 329°
2026-05-07 13:52 52.17419 20.97124 334 ft 9 kts 332°
2026-05-07 13:52 52.17492 20.97060 338 ft 14 kts 332°
2026-05-07 13:53 52.17585 20.96979 334 ft 16 kts 333°
2026-05-07 13:53 52.17614 20.96856 338 ft 13 kts 240°
2026-05-07 13:53 52.17571 20.96744 336 ft 13 kts 238°
2026-05-07 13:53 52.17520 20.96608 337 ft 15 kts 235°
2026-05-07 13:54 52.17454 20.96462 335 ft 17 kts 244°
2026-05-07 13:54 52.17385 20.96402 337 ft 12 kts 156°
2026-05-07 13:54 52.17308 20.96468 334 ft 14 kts 152°
2026-05-07 13:54 52.17213 20.96551 338 ft 17 kts 151°
2026-05-07 13:55 52.17104 20.96647 338 ft 19 kts 153°
2026-05-07 13:55 52.16988 20.96749 337 ft 21 kts 153°
2026-05-07 13:55 52.16858 20.96863 335 ft 22 kts 150°
2026-05-07 13:55 52.16729 20.96972 337 ft 21 kts 153°
2026-05-07 13:56 52.16647 20.97114 335 ft 18 kts 115°
2026-05-07 13:56 52.16592 20.97307 337 ft 20 kts 114°
2026-05-07 13:56 52.16536 20.97509 335 ft 20 kts 114°
2026-05-07 13:56 52.16480 20.97704 336 ft 17 kts 116°
2026-05-07 13:57 52.16403 20.97795 336 ft 15 kts 199°
2026-05-07 13:57 52.16312 20.97706 334 ft 15 kts 241°
2026-05-07 13:57 52.16321 20.97622 335 ft 0 kts 291°
2026-05-07 13:58 52.16324 20.97612 335 ft 6 kts 292°
2026-05-07 13:58 52.16447 20.97172 333 ft 83 kts 295°
2026-05-07 13:58 52.16762 20.96042 337 ft 144 kts 295°
2026-05-07 13:58 52.17194 20.94496 755 ft 163 kts 294°
2026-05-07 13:59 52.17646 20.92853 1615 ft 158 kts 296°
2026-05-07 13:59 52.18132 20.91130 2113 ft 176 kts 295°
2026-05-07 13:59 52.18411 20.89086 2552 ft 197 kts 270°
2026-05-07 13:59 52.18156 20.86840 3137 ft 209 kts 256°
2026-05-07 14:00 52.17788 20.84431 3661 ft 229 kts 256°
2026-05-07 14:00 52.17385 20.81803 4187 ft 248 kts 256°
2026-05-07 14:00 52.16961 20.79073 4960 ft 254 kts 255°
2026-05-07 14:00 52.16549 20.76444 5839 ft 256 kts 255°
2026-05-07 14:01 52.16101 20.73632 6738 ft 258 kts 252°
2026-05-07 14:01 52.15340 20.71028 7539 ft 261 kts 234°
2026-05-07 14:01 52.14060 20.68910 8393 ft 264 kts 219°
2026-05-07 14:01 52.12586 20.67081 9251 ft 268 kts 219°
2026-05-07 14:02 52.11100 20.65222 10091 ft 270 kts 219°
2026-05-07 14:02 52.09564 20.63286 10530 ft 289 kts 219°
2026-05-07 14:02 52.07916 20.61203 10777 ft 311 kts 218°
2026-05-07 14:02 52.06170 20.58997 11329 ft 320 kts 218°
2026-05-07 14:03 52.04412 20.56780 12182 ft 321 kts 218°
2026-05-07 14:03 52.02665 20.54576 12955 ft 324 kts 218°
2026-05-07 14:03 52.00874 20.52321 13740 ft 326 kts 218°
2026-05-07 14:03 51.99063 20.50042 14416 ft 330 kts 218°
2026-05-07 14:04 51.97234 20.47742 15050 ft 334 kts 218°
2026-05-07 14:04 51.95262 20.45709 15694 ft 338 kts 207°
2026-05-07 14:04 51.93038 20.44379 16333 ft 344 kts 195°
2026-05-07 14:04 51.90652 20.43811 16959 ft 350 kts 187°
2026-05-07 14:05 51.88240 20.43467 17591 ft 354 kts 187°
2026-05-07 14:05 51.85777 20.43103 18202 ft 357 kts 188°
2026-05-07 14:05 51.83295 20.42729 18772 ft 359 kts 188°
2026-05-07 14:05 51.80797 20.42350 19369 ft 361 kts 188°
2026-05-07 14:06 51.78291 20.41968 19950 ft 363 kts 188°
2026-05-07 14:06 51.75770 20.41584 20519 ft 365 kts 188°
2026-05-07 14:06 51.73239 20.41199 21091 ft 367 kts 188°
2026-05-07 14:06 51.70689 20.40812 21660 ft 369 kts 188°
2026-05-07 14:07 51.68126 20.40423 22219 ft 371 kts 188°
2026-05-07 14:07 51.65550 20.40033 22780 ft 373 kts 187°
2026-05-07 14:07 51.62960 20.39640 23305 ft 375 kts 187°
2026-05-07 14:07 51.60353 20.39246 23793 ft 377 kts 187°
2026-05-07 14:08 51.57730 20.38850 24265 ft 378 kts 187°
2026-05-07 14:08 51.55105 20.38454 24720 ft 380 kts 187°
2026-05-07 14:08 51.52462 20.38056 25175 ft 381 kts 187°
2026-05-07 14:08 51.49812 20.37657 25611 ft 383 kts 187°
2026-05-07 14:09 51.47153 20.37257 26031 ft 385 kts 187°
2026-05-07 14:09 51.44482 20.36856 26461 ft 386 kts 187°
2026-05-07 14:09 51.41836 20.36459 26853 ft 388 kts 187°
2026-05-07 14:09 51.39124 20.35884 27256 ft 388 kts 192°
2026-05-07 14:10 51.36529 20.34874 27622 ft 389 kts 198°
2026-05-07 14:10 51.33952 20.33524 28000 ft 391 kts 199°
2026-05-07 14:10 51.31355 20.32153 28357 ft 392 kts 199°
2026-05-07 14:10 51.28748 20.30787 28706 ft 394 kts 198°
2026-05-07 14:11 51.26135 20.29427 29038 ft 396 kts 198°
2026-05-07 14:11 51.23510 20.28065 29376 ft 398 kts 198°
2026-05-07 14:11 51.20866 20.26695 29687 ft 399 kts 198°
2026-05-07 14:11 51.18217 20.25326 29999 ft 401 kts 198°
2026-05-07 14:12 51.15587 20.23967 30263 ft 403 kts 198°
2026-05-07 14:12 51.12910 20.22586 30530 ft 405 kts 198°
2026-05-07 14:12 51.10220 20.21200 30795 ft 407 kts 198°
2026-05-07 14:12 51.08431 20.20279 30964 ft 408 kts 198°
2026-05-07 14:13 51.05725 20.18888 31288 ft 408 kts 198°
2026-05-07 14:13 51.02111 20.17033 31756 ft 407 kts 198°
2026-05-07 14:13 50.99416 20.15651 32107 ft 406 kts 199°
2026-05-07 14:14 50.94404 20.13086 32737 ft 405 kts 199°
2026-05-07 14:14 50.91727 20.11718 33051 ft 404 kts 199°
2026-05-07 14:14 50.89044 20.10349 33378 ft 403 kts 199°
2026-05-07 14:14 50.86372 20.08988 33678 ft 403 kts 199°
2026-05-07 14:15 50.83701 20.07630 33970 ft 402 kts 199°
2026-05-07 14:15 50.81037 20.06276 34199 ft 402 kts 199°
2026-05-07 14:15 50.78400 20.04938 34403 ft 402 kts 199°
2026-05-07 14:15 50.75734 20.03586 34611 ft 403 kts 199°
2026-05-07 14:16 50.73058 20.02230 34818 ft 403 kts 199°
2026-05-07 14:16 50.70394 20.00881 35007 ft 403 kts 199°
2026-05-07 14:16 50.67711 19.99524 35199 ft 403 kts 199°
2026-05-07 14:16 50.65038 19.98174 35380 ft 403 kts 199°
2026-05-07 14:17 50.62389 19.96839 35567 ft 403 kts 199°
2026-05-07 14:17 50.59716 19.95492 35752 ft 404 kts 199°
2026-05-07 14:17 50.57040 19.94146 35919 ft 404 kts 199°
2026-05-07 14:17 50.54361 19.92800 36104 ft 404 kts 199°
2026-05-07 14:18 50.51681 19.91455 36251 ft 404 kts 199°
2026-05-07 14:18 50.49000 19.90111 36415 ft 404 kts 199°
2026-05-07 14:18 50.46315 19.88767 36553 ft 405 kts 199°
2026-05-07 14:18 50.43632 19.87425 36699 ft 405 kts 199°
2026-05-07 14:19 50.40942 19.86081 36845 ft 405 kts 199°
2026-05-07 14:19 50.38254 19.84740 36986 ft 405 kts 199°
2026-05-07 14:19 50.35642 19.83438 37123 ft 405 kts 199°
2026-05-07 14:19 50.32957 19.82102 37250 ft 406 kts 199°
2026-05-07 14:20 50.30462 19.80862 37368 ft 406 kts 199°
2026-05-07 14:20 50.27878 19.79578 37487 ft 406 kts 199°
2026-05-07 14:20 50.25310 19.78305 37615 ft 406 kts 199°
2026-05-07 14:20 50.22596 19.76960 37745 ft 406 kts 199°
2026-05-07 14:21 50.19923 19.75637 37851 ft 406 kts 199°
2026-05-07 14:21 50.14527 19.72972 37940 ft 406 kts 199°
2026-05-07 14:22 50.09144 19.70320 37941 ft 406 kts 199°
2026-05-07 14:22 50.03865 19.67724 37936 ft 406 kts 199°
2026-05-07 14:23 49.98382 19.65034 37938 ft 405 kts 199°
2026-05-07 14:23 49.93041 19.62421 37939 ft 405 kts 199°
2026-05-07 14:24 49.87786 19.59855 37935 ft 405 kts 199°
2026-05-07 14:24 49.82397 19.57230 37934 ft 405 kts 199°
2026-05-07 14:25 49.77028 19.54621 37939 ft 404 kts 199°
2026-05-07 14:25 49.71659 19.52018 37943 ft 404 kts 199°
2026-05-07 14:26 49.66306 19.49429 37944 ft 403 kts 199°
2026-05-07 14:26 49.61054 19.46846 37942 ft 402 kts 201°
2026-05-07 14:27 49.55873 19.43562 37945 ft 402 kts 204°
2026-05-07 14:27 49.50713 19.40216 37943 ft 402 kts 204°
2026-05-07 14:28 49.45654 19.36960 37949 ft 402 kts 204°
2026-05-07 14:28 49.40481 19.33645 37963 ft 403 kts 204°
2026-05-07 14:29 49.35328 19.30351 37973 ft 404 kts 204°
2026-05-07 14:29 49.30140 19.27041 37974 ft 404 kts 204°
2026-05-07 14:30 49.25029 19.23788 37969 ft 405 kts 204°
2026-05-07 14:30 49.19805 19.20470 37970 ft 406 kts 204°
2026-05-07 14:31 49.14667 19.17213 37983 ft 405 kts 204°
2026-05-07 14:31 49.09623 19.14024 37969 ft 405 kts 204°
2026-05-07 14:32 49.04243 19.10631 37983 ft 406 kts 204°
2026-05-07 14:32 48.99018 19.07343 37969 ft 406 kts 204°
2026-05-07 14:33 48.93824 19.04080 37974 ft 407 kts 203°
2026-05-07 14:33 48.88571 19.00790 37966 ft 406 kts 204°
2026-05-07 14:34 48.83431 18.97579 37968 ft 407 kts 204°
2026-05-07 14:34 48.78195 18.94312 37969 ft 407 kts 204°
2026-05-07 14:35 48.72961 18.91055 37973 ft 407 kts 204°
2026-05-07 14:35 48.67717 18.87800 37971 ft 407 kts 204°
2026-05-07 14:36 48.62496 18.84565 37984 ft 408 kts 204°
2026-05-07 14:36 48.57386 18.81161 37990 ft 407 kts 209°
2026-05-07 14:37 48.52533 18.76759 37978 ft 406 kts 213°
2026-05-07 14:37 48.45328 18.70002 37977 ft 406 kts 212°
2026-05-07 14:38 48.40620 18.65624 37976 ft 406 kts 212°
2026-05-07 14:38 48.35921 18.61265 37985 ft 407 kts 212°
2026-05-07 14:39 48.31897 18.57541 37980 ft 407 kts 212°
2026-05-07 14:39 48.27061 18.53074 37977 ft 407 kts 212°
2026-05-07 14:40 48.22272 18.48659 37972 ft 406 kts 212°
2026-05-07 14:40 48.18235 18.44946 37968 ft 406 kts 212°
2026-05-07 14:41 48.13448 18.40551 37977 ft 406 kts 212°
2026-05-07 14:41 48.08612 18.36121 37976 ft 406 kts 212°
2026-05-07 14:42 48.03787 18.31713 37975 ft 406 kts 212°
2026-05-07 14:42 47.98960 18.27310 37980 ft 406 kts 212°
2026-05-07 14:43 47.94165 18.22948 37983 ft 406 kts 212°
2026-05-07 14:43 47.89342 18.18569 37987 ft 406 kts 212°
2026-05-07 14:44 47.84518 18.14199 37987 ft 405 kts 212°
2026-05-07 14:44 47.79697 18.09841 37994 ft 405 kts 212°
2026-05-07 14:45 47.74675 18.06013 37977 ft 406 kts 204°
2026-05-07 14:45 47.69306 18.03311 37983 ft 408 kts 199°
2026-05-07 14:46 47.63866 18.00916 37984 ft 408 kts 199°
2026-05-07 14:46 47.58425 17.98494 37983 ft 408 kts 199°
2026-05-07 14:47 47.53019 17.96086 37980 ft 408 kts 199°
2026-05-07 14:47 47.47576 17.93668 37989 ft 408 kts 199°
2026-05-07 14:48 47.42131 17.91254 37981 ft 409 kts 199°
2026-05-07 14:48 47.36681 17.88844 37978 ft 409 kts 199°
2026-05-07 14:49 47.31214 17.86431 37976 ft 410 kts 199°
2026-05-07 14:49 47.25735 17.84017 37981 ft 410 kts 199°
2026-05-07 14:50 47.20282 17.81620 37985 ft 411 kts 199°
2026-05-07 14:50 47.14789 17.79211 37992 ft 412 kts 199°
2026-05-07 14:51 47.09313 17.76815 37994 ft 412 kts 199°
2026-05-07 14:51 47.03825 17.74420 37996 ft 411 kts 200°
2026-05-07 14:52 46.98400 17.72056 37991 ft 411 kts 200°
2026-05-07 14:52 46.92982 17.69700 37994 ft 411 kts 200°
2026-05-07 14:53 46.87502 17.67322 37994 ft 411 kts 200°
2026-05-07 14:53 46.82014 17.64946 37995 ft 411 kts 200°
2026-05-07 14:54 46.76529 17.62577 37988 ft 411 kts 200°
2026-05-07 14:54 46.71033 17.60207 37991 ft 411 kts 200°
2026-05-07 14:55 46.65571 17.57857 37994 ft 411 kts 200°
2026-05-07 14:55 46.60079 17.55500 37996 ft 412 kts 200°
2026-05-07 14:56 46.54579 17.53143 37999 ft 412 kts 200°
2026-05-07 14:56 46.49071 17.50789 38000 ft 412 kts 200°
2026-05-07 14:57 46.43563 17.48439 38013 ft 412 kts 200°
2026-05-07 14:57 46.38057 17.46096 38004 ft 412 kts 200°
2026-05-07 14:58 46.32548 17.43756 38004 ft 412 kts 200°
2026-05-07 14:58 46.27072 17.41435 38009 ft 412 kts 200°
2026-05-07 14:59 46.21558 17.39103 38002 ft 412 kts 200°
2026-05-07 14:59 46.16051 17.36777 38001 ft 412 kts 200°
2026-05-07 15:00 46.10549 17.34459 37998 ft 412 kts 200°
2026-05-07 15:00 46.05074 17.32158 38001 ft 412 kts 200°
2026-05-07 15:01 45.99674 17.29891 37996 ft 412 kts 200°
2026-05-07 15:01 45.94138 17.27709 37993 ft 412 kts 198°
2026-05-07 15:02 45.88572 17.25638 37994 ft 412 kts 199°
2026-05-07 15:02 45.83057 17.23561 37995 ft 412 kts 199°
2026-05-07 15:03 45.77504 17.21460 38007 ft 413 kts 199°
2026-05-07 15:03 45.71944 17.19359 38011 ft 413 kts 199°
2026-05-07 15:04 45.67314 17.17613 38004 ft 413 kts 199°
2026-05-07 15:05 45.55033 17.13000 38017 ft 414 kts 199°
2026-05-07 15:05 45.49480 17.10920 38017 ft 415 kts 199°
2026-05-07 15:06 45.43892 17.08832 38021 ft 415 kts 199°
2026-05-07 15:06 45.38299 17.06746 38021 ft 415 kts 199°
2026-05-07 15:07 45.32695 17.04660 38022 ft 416 kts 199°
2026-05-07 15:07 45.27127 17.02592 38020 ft 416 kts 199°
2026-05-07 15:08 45.21529 17.00518 38021 ft 416 kts 199°
2026-05-07 15:08 45.15922 16.98444 38021 ft 416 kts 199°
2026-05-07 15:09 45.10318 16.96374 38020 ft 416 kts 199°
2026-05-07 15:09 45.04708 16.94306 38018 ft 416 kts 199°
2026-05-07 15:10 44.99134 16.92258 38014 ft 416 kts 199°
2026-05-07 15:10 44.93775 16.90292 38014 ft 416 kts 199°
2026-05-07 15:11 44.88347 16.88304 38015 ft 417 kts 199°
2026-05-07 15:11 44.82938 16.86327 38006 ft 417 kts 199°
2026-05-07 15:12 44.77325 16.84279 38004 ft 417 kts 199°
2026-05-07 15:12 44.71692 16.82229 38009 ft 418 kts 199°
2026-05-07 15:13 44.66091 16.80194 38013 ft 418 kts 199°
2026-05-07 15:13 44.60446 16.78146 38016 ft 419 kts 199°
2026-05-07 15:14 44.54800 16.76104 38022 ft 419 kts 199°
2026-05-07 15:14 44.49148 16.74064 38033 ft 419 kts 199°
2026-05-07 15:15 44.44453 16.72370 38033 ft 420 kts 199°
2026-05-07 15:15 44.38791 16.70333 38048 ft 420 kts 199°
2026-05-07 15:16 44.33128 16.68299 38042 ft 420 kts 199°
2026-05-07 15:16 44.27454 16.66266 38049 ft 420 kts 199°
2026-05-07 15:17 44.21867 16.64268 38050 ft 420 kts 199°
2026-05-07 15:17 44.16219 16.62252 38041 ft 419 kts 199°
2026-05-07 15:18 44.10684 16.60278 38036 ft 419 kts 199°
2026-05-07 15:18 44.05176 16.58319 38046 ft 419 kts 199°
2026-05-07 15:19 43.99559 16.56324 38065 ft 421 kts 199°
2026-05-07 15:19 43.93889 16.54314 38068 ft 422 kts 199°
2026-05-07 15:20 43.88193 16.52303 38071 ft 422 kts 199°
2026-05-07 15:20 43.82497 16.50294 38068 ft 422 kts 199°
2026-05-07 15:21 43.76801 16.48288 38060 ft 422 kts 199°
2026-05-07 15:21 43.71147 16.46302 38054 ft 421 kts 199°
2026-05-07 15:22 43.65468 16.44310 38048 ft 421 kts 199°
2026-05-07 15:22 43.60166 16.42454 38044 ft 420 kts 199°
2026-05-07 15:23 43.54504 16.40475 38040 ft 419 kts 199°
2026-05-07 15:23 43.48847 16.38502 38040 ft 419 kts 199°
2026-05-07 15:24 43.43288 16.36567 38041 ft 418 kts 200°
2026-05-07 15:24 43.37688 16.34622 38044 ft 417 kts 200°
2026-05-07 15:25 43.32072 16.32674 38039 ft 417 kts 200°
2026-05-07 15:25 43.26446 16.30727 38036 ft 416 kts 200°
2026-05-07 15:26 43.20829 16.28786 38029 ft 416 kts 200°
2026-05-07 15:26 43.15211 16.26849 38024 ft 416 kts 200°
2026-05-07 15:27 43.09602 16.24920 38021 ft 416 kts 200°
2026-05-07 15:27 43.03981 16.22988 38019 ft 415 kts 200°
2026-05-07 15:28 42.98372 16.21066 38012 ft 416 kts 200°
2026-05-07 15:28 42.92753 16.19144 38016 ft 416 kts 200°
2026-05-07 15:29 42.87162 16.17236 38010 ft 416 kts 200°
2026-05-07 15:29 42.81538 16.15319 38010 ft 417 kts 201°
2026-05-07 15:30 42.75895 16.13400 38015 ft 417 kts 201°
2026-05-07 15:30 42.70249 16.11483 38017 ft 418 kts 201°
2026-05-07 15:31 42.64615 16.09573 38019 ft 418 kts 201°
2026-05-07 15:31 42.58989 16.07668 38017 ft 419 kts 201°
2026-05-07 15:32 42.53336 16.05758 38004 ft 418 kts 201°
2026-05-07 15:32 42.47723 16.03794 38002 ft 415 kts 204°
2026-05-07 15:33 42.42184 16.01589 38000 ft 414 kts 204°
2026-05-07 15:33 42.36645 15.99394 37998 ft 414 kts 204°
2026-05-07 15:34 42.31143 15.97249 37996 ft 414 kts 204°
2026-05-07 15:34 42.25587 15.95094 38000 ft 414 kts 204°
2026-05-07 15:35 42.20047 15.92949 37989 ft 414 kts 205°
2026-05-07 15:35 42.14552 15.90826 37987 ft 413 kts 205°
2026-05-07 15:36 42.09014 15.88690 37979 ft 413 kts 205°
2026-05-07 15:36 42.03496 15.86566 37965 ft 411 kts 205°
2026-05-07 15:37 41.98003 15.84454 37967 ft 410 kts 206°
2026-05-07 15:37 41.92581 15.82372 37968 ft 409 kts 206°
2026-05-07 15:38 41.87199 15.80311 37963 ft 409 kts 206°
2026-05-07 15:38 41.81731 15.78220 37966 ft 408 kts 207°
2026-05-07 15:39 41.78158 15.76855 37965 ft 408 kts 207°
2026-05-07 15:39 41.72685 15.74768 37974 ft 408 kts 207°
2026-05-07 15:40 41.67222 15.72687 37999 ft 408 kts 207°
2026-05-07 15:40 41.61785 15.70626 37995 ft 404 kts 208°
2026-05-07 15:41 41.56408 15.68585 37998 ft 404 kts 208°
2026-05-07 15:41 41.50993 15.66534 37994 ft 403 kts 208°
2026-05-07 15:42 41.45612 15.64500 37965 ft 401 kts 208°
2026-05-07 15:42 41.40244 15.62473 37969 ft 401 kts 209°
2026-05-07 15:43 41.34881 15.60453 37969 ft 400 kts 209°
2026-05-07 15:43 41.29565 15.58454 37969 ft 399 kts 209°
2026-05-07 15:44 41.24233 15.56451 37973 ft 398 kts 209°
2026-05-07 15:44 41.18901 15.54451 37974 ft 398 kts 210°
2026-05-07 15:45 41.13586 15.52447 37972 ft 393 kts 211°
2026-05-07 15:45 41.08438 15.50176 37970 ft 388 kts 212°
2026-05-07 15:46 41.00797 15.46742 37958 ft 389 kts 212°
2026-05-07 15:47 40.95661 15.44483 37967 ft 388 kts 212°
2026-05-07 15:47 40.90532 15.42239 37960 ft 387 kts 212°
2026-05-07 15:48 40.85419 15.40005 37951 ft 386 kts 212°
2026-05-07 15:48 40.80349 15.37789 37957 ft 385 kts 212°
2026-05-07 15:49 40.75263 15.35570 37959 ft 383 kts 212°
2026-05-07 15:49 40.70299 15.33409 37947 ft 383 kts 212°
2026-05-07 15:50 40.65230 15.31205 37938 ft 382 kts 212°
2026-05-07 15:50 40.60183 15.29017 37933 ft 382 kts 212°
2026-05-07 15:51 40.55141 15.26834 37925 ft 381 kts 212°
2026-05-07 15:51 40.50121 15.24661 37933 ft 382 kts 212°
2026-05-07 15:52 40.45069 15.22481 37925 ft 380 kts 211°
2026-05-07 15:52 40.39935 15.20550 37928 ft 391 kts 205°
2026-05-07 15:53 40.34639 15.19108 37924 ft 390 kts 206°
2026-05-07 15:53 40.29515 15.17696 37918 ft 388 kts 206°
2026-05-07 15:54 40.24203 15.16221 37923 ft 389 kts 205°
2026-05-07 15:54 40.19292 15.14861 37916 ft 388 kts 205°
2026-05-07 15:55 40.13997 15.13401 37913 ft 388 kts 205°
2026-05-07 15:55 40.08777 15.11963 37904 ft 389 kts 205°
2026-05-07 15:56 40.03477 15.10505 37905 ft 389 kts 205°
2026-05-07 15:56 39.98167 15.09048 37905 ft 390 kts 205°
2026-05-07 15:57 39.92839 15.07584 37628 ft 393 kts 205°
2026-05-07 15:57 39.90162 15.06851 37354 ft 393 kts 205°
2026-05-07 15:57 39.87476 15.06116 37087 ft 395 kts 204°
2026-05-07 15:57 39.84782 15.05378 36818 ft 397 kts 204°
2026-05-07 15:58 39.82988 15.04887 36646 ft 398 kts 204°
2026-05-07 15:58 39.79387 15.03904 36299 ft 400 kts 204°
2026-05-07 15:58 39.76655 15.03159 36050 ft 401 kts 204°
2026-05-07 15:58 39.73918 15.02414 35913 ft 402 kts 203°
2026-05-07 15:59 39.72096 15.01918 35907 ft 403 kts 203°
2026-05-07 15:59 39.66598 15.00415 35906 ft 404 kts 204°
2026-05-07 16:00 39.61096 14.98895 35906 ft 404 kts 203°
2026-05-07 16:00 39.55582 14.97395 35903 ft 405 kts 203°
2026-05-07 16:01 39.50053 14.95904 35897 ft 406 kts 203°
2026-05-07 16:01 39.44524 14.94416 35895 ft 406 kts 203°
2026-05-07 16:02 39.39014 14.92933 35896 ft 407 kts 203°
2026-05-07 16:02 39.33464 14.91442 35889 ft 408 kts 202°
2026-05-07 16:03 39.27892 14.89947 35891 ft 408 kts 202°
2026-05-07 16:03 39.22306 14.88451 35885 ft 410 kts 202°
2026-05-07 16:03 39.19509 14.87702 35778 ft 411 kts 202°
2026-05-07 16:04 39.16702 14.86951 35526 ft 411 kts 202°
2026-05-07 16:04 39.13901 14.86203 35275 ft 410 kts 202°
2026-05-07 16:04 39.11104 14.85455 35030 ft 411 kts 202°
2026-05-07 16:04 39.08302 14.84706 34791 ft 411 kts 202°
2026-05-07 16:05 39.05496 14.83956 34548 ft 412 kts 202°
2026-05-07 16:05 39.02691 14.83207 34303 ft 413 kts 201°
2026-05-07 16:05 38.99914 14.82467 34071 ft 413 kts 201°
2026-05-07 16:05 38.97100 14.81718 33827 ft 413 kts 201°
2026-05-07 16:06 38.94282 14.80968 33558 ft 414 kts 201°
2026-05-07 16:06 38.91448 14.80214 33287 ft 415 kts 201°
2026-05-07 16:06 38.88611 14.79461 33020 ft 415 kts 201°
2026-05-07 16:06 38.85775 14.78708 32768 ft 415 kts 201°
2026-05-07 16:07 38.82940 14.77955 32490 ft 417 kts 201°
2026-05-07 16:07 38.80098 14.77201 32115 ft 418 kts 200°
2026-05-07 16:07 38.77255 14.76448 31780 ft 417 kts 200°
2026-05-07 16:07 38.74407 14.75694 31454 ft 418 kts 200°
2026-05-07 16:08 38.71555 14.74939 31134 ft 419 kts 200°
2026-05-07 16:08 38.68699 14.74184 30814 ft 420 kts 199°
2026-05-07 16:08 38.65832 14.73427 30499 ft 420 kts 199°
2026-05-07 16:08 38.63008 14.72683 30195 ft 419 kts 199°
2026-05-07 16:09 38.60160 14.71934 29938 ft 416 kts 199°
2026-05-07 16:09 38.57323 14.71188 29744 ft 416 kts 199°
2026-05-07 16:09 38.54488 14.70442 29496 ft 416 kts 199°
2026-05-07 16:09 38.51650 14.69695 29052 ft 415 kts 199°
2026-05-07 16:10 38.48824 14.68954 28631 ft 412 kts 199°
2026-05-07 16:10 38.46030 14.68222 28272 ft 409 kts 199°
2026-05-07 16:10 38.43237 14.67490 27954 ft 409 kts 199°
2026-05-07 16:10 38.40454 14.66759 27643 ft 408 kts 199°
2026-05-07 16:11 38.37670 14.66030 27337 ft 407 kts 199°
2026-05-07 16:11 38.34900 14.65305 27027 ft 406 kts 198°
2026-05-07 16:11 38.32141 14.64585 26728 ft 405 kts 198°
2026-05-07 16:11 38.29384 14.63865 26538 ft 403 kts 198°
2026-05-07 16:12 38.26634 14.63146 26362 ft 404 kts 198°
2026-05-07 16:12 38.23912 14.62436 26193 ft 403 kts 198°
2026-05-07 16:12 38.21166 14.61721 26020 ft 403 kts 198°
2026-05-07 16:12 38.18423 14.61007 25853 ft 402 kts 198°
2026-05-07 16:13 38.15672 14.60291 25682 ft 402 kts 198°
2026-05-07 16:13 38.12931 14.59579 25514 ft 401 kts 198°
2026-05-07 16:13 38.10199 14.58869 25344 ft 400 kts 198°
2026-05-07 16:13 38.07468 14.58160 25179 ft 400 kts 198°
2026-05-07 16:14 38.04758 14.57457 25018 ft 400 kts 198°
2026-05-07 16:14 38.02051 14.56756 24872 ft 399 kts 198°
2026-05-07 16:14 37.99338 14.56054 24860 ft 398 kts 198°
2026-05-07 16:14 37.96608 14.55346 24864 ft 400 kts 198°
2026-05-07 16:15 37.93872 14.54637 24862 ft 400 kts 198°
2026-05-07 16:15 37.91147 14.53933 24860 ft 400 kts 198°
2026-05-07 16:15 37.88417 14.53229 24869 ft 400 kts 198°
2026-05-07 16:15 37.85710 14.52529 24712 ft 400 kts 198°
2026-05-07 16:16 37.82975 14.51823 24379 ft 400 kts 198°
2026-05-07 16:16 37.80262 14.51126 24086 ft 397 kts 197°
2026-05-07 16:16 37.77558 14.50431 23767 ft 395 kts 197°
2026-05-07 16:16 37.74872 14.49740 23457 ft 393 kts 197°
2026-05-07 16:17 37.72191 14.49050 23069 ft 392 kts 197°
2026-05-07 16:17 37.69509 14.48360 22676 ft 391 kts 197°
2026-05-07 16:17 37.66854 14.47679 22282 ft 387 kts 197°
2026-05-07 16:17 37.64225 14.47005 21894 ft 384 kts 197°
2026-05-07 16:18 37.61598 14.46427 21512 ft 384 kts 192°
2026-05-07 16:18 37.58960 14.46154 21136 ft 384 kts 190°
2026-05-07 16:18 37.56299 14.45908 20763 ft 382 kts 190°
2026-05-07 16:18 37.53657 14.45658 20396 ft 380 kts 190°
2026-05-07 16:19 37.51023 14.45408 20030 ft 378 kts 190°
2026-05-07 16:19 37.48406 14.45158 19661 ft 376 kts 190°
2026-05-07 16:19 37.45801 14.44909 19317 ft 375 kts 190°
2026-05-07 16:19 37.43193 14.44658 18959 ft 374 kts 190°
2026-05-07 16:20 37.40622 14.44415 18606 ft 367 kts 190°
2026-05-07 16:20 37.38100 14.44178 18266 ft 359 kts 190°
2026-05-07 16:20 37.35632 14.43948 17883 ft 352 kts 190°
2026-05-07 16:20 37.33237 14.43718 17502 ft 346 kts 190°
2026-05-07 16:21 37.30922 14.43495 17118 ft 341 kts 190°
2026-05-07 16:21 37.28573 14.43268 16732 ft 336 kts 190°
2026-05-07 16:21 37.26258 14.43047 16391 ft 330 kts 190°
2026-05-07 16:21 37.23990 14.42832 16085 ft 324 kts 190°
2026-05-07 16:22 37.21747 14.42806 15791 ft 322 kts 181°
2026-05-07 16:22 37.19529 14.43249 15492 ft 324 kts 172°
2026-05-07 16:22 37.17356 14.44114 15193 ft 329 kts 167°
2026-05-07 16:22 37.15201 14.45043 14909 ft 326 kts 167°
2026-05-07 16:23 37.13066 14.45954 14623 ft 322 kts 167°
2026-05-07 16:23 37.10939 14.46855 14341 ft 322 kts 167°
2026-05-07 16:23 37.08844 14.47741 14108 ft 320 kts 167°
2026-05-07 16:23 37.06738 14.48632 13870 ft 319 kts 167°
2026-05-07 16:24 37.04637 14.49519 13640 ft 317 kts 166°
2026-05-07 16:24 37.02549 14.50402 13382 ft 316 kts 166°
2026-05-07 16:24 37.00467 14.51282 13118 ft 315 kts 166°
2026-05-07 16:24 36.98495 14.52114 12877 ft 314 kts 166°
2026-05-07 16:25 36.96429 14.52985 12626 ft 313 kts 166°
2026-05-07 16:25 36.94372 14.53853 12364 ft 312 kts 166°
2026-05-07 16:25 36.92319 14.54719 12115 ft 311 kts 166°
2026-05-07 16:25 36.90269 14.55583 11883 ft 310 kts 166°
2026-05-07 16:26 36.89424 14.55939 11766 ft 309 kts 166°
2026-05-07 16:26 36.87484 14.56765 11655 ft 306 kts 165°
2026-05-07 16:26 36.85455 14.57633 11407 ft 309 kts 165°
2026-05-07 16:26 36.84107 14.58206 11248 ft 309 kts 165°
2026-05-07 16:27 36.81430 14.59339 10925 ft 305 kts 165°
2026-05-07 16:27 36.79423 14.60181 10677 ft 305 kts 166°
2026-05-07 16:27 36.77414 14.61023 10465 ft 304 kts 166°
2026-05-07 16:27 36.75413 14.61859 10225 ft 302 kts 165°
2026-05-07 16:28 36.73425 14.62689 9982 ft 301 kts 165°
2026-05-07 16:28 36.71445 14.63516 9880 ft 299 kts 166°
2026-05-07 16:28 36.69467 14.64343 9852 ft 300 kts 166°
2026-05-07 16:28 36.67482 14.65171 9857 ft 301 kts 165°
2026-05-07 16:29 36.65496 14.65999 9850 ft 301 kts 165°
2026-05-07 16:29 36.63507 14.66830 9843 ft 301 kts 165°
2026-05-07 16:29 36.61516 14.67661 9848 ft 301 kts 165°
2026-05-07 16:29 36.59531 14.68490 9849 ft 301 kts 165°
2026-05-07 16:30 36.57545 14.69318 9829 ft 301 kts 166°
2026-05-07 16:30 36.55556 14.70147 9633 ft 302 kts 166°
2026-05-07 16:30 36.53569 14.70976 9338 ft 299 kts 166°
2026-05-07 16:30 36.51609 14.71793 9060 ft 297 kts 165°
2026-05-07 16:31 36.49686 14.72593 8797 ft 293 kts 165°
2026-05-07 16:31 36.47775 14.73389 8502 ft 286 kts 165°
2026-05-07 16:31 36.45903 14.74169 8222 ft 280 kts 166°
2026-05-07 16:31 36.44070 14.74931 7955 ft 278 kts 166°
2026-05-07 16:32 36.42211 14.75699 7700 ft 282 kts 165°
2026-05-07 16:32 36.40357 14.76468 7422 ft 278 kts 165°
2026-05-07 16:32 36.38530 14.77227 7159 ft 277 kts 165°
2026-05-07 16:32 36.36698 14.77986 6898 ft 277 kts 165°
2026-05-07 16:33 36.34886 14.78738 6640 ft 273 kts 165°
2026-05-07 16:33 36.33097 14.79479 6386 ft 275 kts 165°
2026-05-07 16:33 36.31286 14.80230 6120 ft 273 kts 165°
2026-05-07 16:33 36.29544 14.80951 5856 ft 273 kts 165°
2026-05-07 16:34 36.27750 14.81692 5579 ft 270 kts 165°
2026-05-07 16:34 36.26037 14.82400 5322 ft 270 kts 165°
2026-05-07 16:34 36.24257 14.83136 5060 ft 269 kts 165°
2026-05-07 16:34 36.22486 14.83869 4787 ft 268 kts 164°
2026-05-07 16:35 36.20721 14.84598 4516 ft 266 kts 164°
2026-05-07 16:35 36.18969 14.85322 4241 ft 264 kts 164°
2026-05-07 16:35 36.17229 14.86039 3976 ft 261 kts 164°
2026-05-07 16:35 36.15520 14.86744 3698 ft 256 kts 164°
2026-05-07 16:36 36.13850 14.87435 3428 ft 250 kts 164°
2026-05-07 16:36 36.12214 14.88111 3164 ft 245 kts 164°
2026-05-07 16:36 36.10595 14.88406 3007 ft 233 kts 188°
2026-05-07 16:36 36.09127 14.87774 2992 ft 221 kts 213°
2026-05-07 16:37 36.08029 14.86391 2993 ft 234 kts 233°
2026-05-07 16:37 36.07084 14.84733 2992 ft 235 kts 233°
2026-05-07 16:37 36.06162 14.83103 2989 ft 229 kts 233°
2026-05-07 16:37 36.05233 14.81475 2991 ft 234 kts 233°
2026-05-07 16:38 36.04288 14.79827 2999 ft 235 kts 232°
2026-05-07 16:38 36.03342 14.78180 3011 ft 236 kts 232°
2026-05-07 16:38 36.02394 14.76534 2996 ft 231 kts 232°
2026-05-07 16:38 36.01494 14.74967 2991 ft 215 kts 232°
2026-05-07 16:39 36.00668 14.73532 2991 ft 194 kts 232°
2026-05-07 16:39 35.99932 14.72248 2991 ft 172 kts 231°
2026-05-07 16:39 35.99286 14.71123 2991 ft 153 kts 231°
2026-05-07 16:39 35.98687 14.70093 2996 ft 149 kts 231°
2026-05-07 16:40 35.98083 14.69054 2994 ft 148 kts 231°
2026-05-07 16:40 35.97481 14.68018 3015 ft 151 kts 230°
2026-05-07 16:40 35.96874 14.66968 2993 ft 148 kts 231°
2026-05-07 16:40 35.96265 14.65915 2882 ft 154 kts 231°
2026-05-07 16:41 35.95642 14.64835 2708 ft 153 kts 230°
2026-05-07 16:41 35.95033 14.63770 2513 ft 151 kts 230°
2026-05-07 16:41 35.94438 14.62736 2321 ft 144 kts 230°
2026-05-07 16:41 35.93867 14.61742 2067 ft 140 kts 229°
2026-05-07 16:42 35.93302 14.60762 1782 ft 140 kts 228°
2026-05-07 16:42 35.92737 14.59785 1511 ft 138 kts 227°
2026-05-07 16:42 35.92164 14.58797 1302 ft 144 kts 227°
2026-05-07 16:42 35.91594 14.57809 1035 ft 139 kts 226°
2026-05-07 16:43 35.91039 14.56875 776 ft 133 kts 231°
2026-05-07 16:43 35.90498 14.55967 572 ft 131 kts 234°
2026-05-07 16:43 35.89992 14.55099 483 ft 118 kts 235°
2026-05-07 16:43 35.89532 14.54252 561 ft 119 kts 236°
2026-05-07 16:44 35.89068 14.53335 632 ft 132 kts 238°
2026-05-07 16:44 35.88557 14.52338 590 ft 141 kts 235°
2026-05-07 16:44 35.87995 14.51337 619 ft 141 kts 232°
2026-05-07 16:44 35.87345 14.50450 669 ft 132 kts 228°
2026-05-07 16:45 35.86803 14.49586 598 ft 125 kts 234°
2026-05-07 16:45 35.86469 14.49004 481 ft 124 kts 236°
2026-05-07 16:45 35.85983 14.48147 296 ft 120 kts 236°
2026-05-07 16:45 35.85577 14.47439 271 ft 64 kts 235°
2026-05-07 16:46 35.85435 14.47198 277 ft 31 kts 228°
2026-05-07 16:46 35.85266 14.46906 285 ft 31 kts 231°
2026-05-07 16:46 35.85182 14.46767 290 ft 28 kts 236°
2026-05-07 16:46 35.85154 14.46741 288 ft 6 kts 165°
2026-05-07 16:47 35.85100 14.46784 287 ft 13 kts 122°
2026-05-07 16:47 35.85097 14.46921 284 ft 20 kts 71°
2026-05-07 16:47 35.85183 14.47078 280 ft 26 kts 52°
2026-05-07 16:47 35.85286 14.47242 276 ft 17 kts 49°
2026-05-07 16:48 35.85366 14.47365 273 ft 21 kts 51°
2026-05-07 16:48 35.85465 14.47518 269 ft 24 kts 52°
2026-05-07 16:48 35.85496 14.47644 266 ft 10 kts 60°
2026-05-07 16:48 35.85509 14.47712 264 ft 6 kts 135°
2026-05-07 16:49 35.85508 14.47713 264 ft 0 kts 140°